{"data":{"norad_id":28370,"epoch":"2026-09-18T06:46:43.099392Z","epoch_age_seconds":205967,"freshness":"STALE","line1":"1 28370U 04025E   26261.28244328  .00000169  00000+0  55474-4 0  9995","line2":"2 28370  98.6650 276.1644 0055126 338.7000  21.1898 14.50025860173591","mean_motion":14.5002586,"eccentricity":0.0055126,"inclination_deg":98.665,"raan_deg":276.1644,"arg_perigee_deg":338.7,"mean_anomaly_deg":21.1898,"bstar":5.5474e-5,"rev_number":17359,"period_min":99.308573710541,"perigee_km":686.40418481788,"apogee_km":764.72390960359,"semimajor_km":7103.7010472107,"source":"CELESTRAK","updated_at":"2026-09-20T09:00:13.597229Z"}}